DELTA 1 DEB

Satellite information

Favourite Embed

Satellite Type and Status

DEBRISIN ORBIT

Key statistics

Satellite DELTA 1 DEB at a glance.

Uptime

17351

Days in orbit

Revolutions

≈ 13.9

Per day

Orbit

SSO

Sun Synchronous Orbit

Inclination

98.8

Latest

Satellite identification and parameters

Extended collection of information and parameters for DELTA 1 DEB.

Object identification

Identified? True

Debris? True

Object name: DELTA 1 DEB

International designator: 1978-026FL

Object number (NORAD): 13573

Object ID (CCSDS): 13573

Country: UNITED STATES OF AMERICA (US)

Current information (Y/N): Y

RCS size: SMALL

Orbital parameters

Period: 103.672 minutes

Inclination: 98.8357 deg

SMA: 7310.305 km

Apoapsis: 984.971 km

Periapsis: 879.369 km

RAAN: 110.8025 deg

Eccentricy: 0.00722286

Argument of periapsis: 337.4481 deg

Mean anomaly: 187.7934 deg

Mean motion: 13.88991322 rev/day

Mean motion (dot): 0.00000145 rev/day2

B* drag term: 0.00015070992 1/REarth

Two-line elements (TLE)

Creation date: Sept. 3, 2025, 10:15 a.m.

Reference frame: TEME

Reference center: EARTH

Epoch: Sept. 3, 2025, 1:50 a.m. UTC

TLE line 0: 0 DELTA 1 DEB

TLE line 1: 1 13573U 78026FL 25246.07694810 .00000145 00000-0 15071-3 0 9993

TLE line 2: 2 13573 98.8357 110.8025 0072229 337.4481 187.7934 13.88991322243464

Live tracking on map

Real-time ground track for satellite DELTA 1 DEB.

In-orbit conjunctions

A list of the most updated potential collisions computed for object DELTA 1 DEB.

Target Orbit TCA Probability of collision Miss distance Type
CZ-4C R/B LEO 2025-07-06 17:00:57 0.0004609706 75.0 (m) ROCKET BODY
SCOUT A DEB SSO 2024-10-10 15:32:59 0.0001056806 362.0 (m) DEBRIS

Associated space launch

Earth observation satellite

DELTA 1 DEB was lifted into orbit during the mission ‘Delta 2910 | Landsat 3’, on board a Delta 2910 space rocket.

The launch took place on March 5, 1978, 5:54 p.m. from Space Launch Complex 2W.

For more information about the launch, click the button.

Launch to space Delta 2910 | Landsat 3
Delta 2910 | Landsat 3

Agency: N/A

Status: Launch Successful

Launch date: March 5, 1978, 5:54 p.m. UTC

Rocket: Delta 2910

Launch pad: Space Launch Complex 2W

Location: Vandenberg SFB, CA, USA

...

Latest news about this satellite

There are no fresh news available about this satellite. Check back as we update our databases every day.


Newsletter sign-up

Weekly statistics, charts and insights to help you stay on top of the space industry.